Main page
METAR-TAF:

METAR-TAF

Airports :

Lawrence Municipal Airport

Lawrence, Kansas, United States

latitude: 39-00-30N, longitude: 095-12-42W, elevation: 830 ft

Current weather observation

The report was made 24 minutes ago, at 05:52 UTC
Wind 8 mph from the North/Northwest
Temperature 64°F
Humidity 94%
Pressure 29.76 in. Hg
Visibility: 10 miles
Clear sky

METAR: KLWC 270552Z AUTO 33007KT 10SM CLR 18/17 A2976 RMK AO1 SLP072 T01830167 10267 20183 402830156 51020

Time: 01:16 (06:16 UTC)


TAF: missing

Weather observations and forecasts of more than 4000 airports (METAR and TAF reports).

The available stations are represented by yellow and red dots on the map.

Hover mouse over dot to see the name of the station.

Then click to see weather observations and forecasts.

To change the map : click on the green buttons with a black cross to zoom in, on the green button with a dash to zoom out, or on the green arrows for adjacent maps.


METAR-TAF: